Location: Mexico
(19.4000°N, 99.1500°W)
Time: 07:19:47
(UTC-06:00)

ISS - Pass Details

Date: 14 September 2019
Orbit: 411 x 421 km, 51.6° (Epoch: 18 September)

Event Time Altitude Azimuth Distance (km) Brightness Sun altitude
Rises 19:27:34 0° 184° (S) 2,328 0.0 -12.0°
Reaches altitude 10° 19:30:22 10° 158° (SSE) 1,468 -1.3 -12.6°
Enters shadow 19:31:08 13° 146° (SE) 1,325 -1.6 -12.8°
